Regional Weather Roundup
Issued by NWS

Home | Current Version | Previous Version | Text Only | Print | Product List | Glossary Off
Versions: 1 2 3 4 5 6 7 8 9 10 11 12 13 14 15 16 17 18 19 20 21 22 23 24 25 26 27 28 29 30 31 32 33 34 35 36 37 38 39 40 41 42 43 44 45 46 47 48 49 50

000
ASUS43 KIND 280409
RWRIN

WEATHER ROUNDUP FOR INDIANA
NATIONAL WEATHER SERVICE INDIANAPOLIS IN
1100 PM EST TUE JAN 27 2015

NOTE: "FAIR" INDICATES FEW OR NO CLOUDS BELOW 12,000 FEET WITH NO
SIGNIFICANT WEATHER AND/OR OBSTRUCTIONS TO VISIBILITY.

* - STATION DOES NOT REPORT WEATHER SUCH AS PRECIPITATION OR FOG.

+ - STATION NOT QUALITY CONTROLLED BY THE NATIONAL WEATHER SERVICE.
    USE DATA WITH CAUTION...ESPECIALLY DEWPOINT AND RELATIVE
    HUMIDITY OBSERVATIONS.

INZ001>003-010>013-019-020-280500-
NORTHWEST INDIANA

CITY           SKY/WX    TMP DP  RH WIND       PRES   REMARKS
GARY /AIRPORT/ CLEAR     26  15  64 NE5       30.26R WCI  20
KNOX *+        CLEAR     16   6  63 CALM      30.24R
LA PORTE +     CLOUDY    17  12  78 CALM      30.25R
MICHIGAN CITY+ CLEAR     18  10  73 CALM      30.26R
MONTICELLO +   CLEAR     20  15  78 CALM      30.24R
RENSSELAER +   CLEAR     21  21 100 NE3       30.24S
VALPARAISO     CLEAR     18  13  80 CALM      30.25R

$$

LMZ046-743>745-280500-
SOUTHERN LAKE MICHIGAN

STATION/POSITION TIME  TEMP WIND        PRES
                       AIR  DIR/SP/G
                 (UTC) (F)  (DEG/KT/KT) (MB)
MICHIGAN CITY    0400   24  100/  6/  7   N/A

$$

INZ004-005-014>016-021>024-280500-
NORTH CENTRAL INDIANA

CITY           SKY/WX    TMP DP  RH WIND       PRES   REMARKS
GOSHEN         CLEAR     15   9  76 CALM      30.23S
LOGANSPORT +   CLEAR     14  10  85 CALM      30.25S
PERU/GRISSOM   CLEAR     11   8  88 CALM      30.23R
ROCHESTER +    CLEAR     18  14  86 CALM      30.25S
SOUTH BEND     CLEAR     16   9  74 CALM      30.24S
WARSAW +       PTCLDY    14  12  92 CALM      30.24R

$$

INZ006>009-017-018-025>027-280500-
NORTHEAST INDIANA

CITY           SKY/WX    TMP DP  RH WIND       PRES   REMARKS
ANGOLA *+      CLEAR     10   7  85 CALM      30.21S
AUBURN +       PTCLDY    14  10  85 CALM      30.23S
FORT WAYNE     PTCLDY    12   7  80 N3        30.24S
HUNTINGTON +   PTCLDY    12   6  77 CALM      30.24R

$$

INZ028-029-035-036-043>045-051>053-280500-
WEST CENTRAL INDIANA

CITY           SKY/WX    TMP DP  RH WIND       PRES   REMARKS
CRAWFORDSVL +  CLEAR     17  13  82 CALM      30.23S
GREENCASTLE +  CLEAR     19  12  73 CALM      30.24S
LAFAYETTE      CLEAR     19  14  81 NE3       30.25S
TERRE HAUTE    CLEAR     21  18  88 CALM      30.25F

$$

INZ030>032-037>040-046>048-054>057-064-065-280500-
CENTRAL INDIANA

CITY           SKY/WX    TMP DP  RH WIND       PRES   REMARKS
CP ATTERBURY + CLEAR     18  14  86 CALM      30.25S
INDIANAPOLIS   CLEAR     20  12  71 CALM      30.23S
-EAGLE CREEK   CLEAR     19  13  77 CALM      30.23S
KOKOMO *+      CLEAR     12   9  85 CALM      30.24S
MARION +       PTCLDY    15  13  90 CALM      30.24S
MT COMFORT *+  CLEAR     19  19 100 CALM      30.24S
SHELBYVILLE    CLEAR     21  15  78 CALM      30.24S
ZIONSVILLE +   CLEAR     20  16  83 CALM      30.23S

$$

INZ033-034-041-042-049-050-058-059-280500-
EAST CENTRAL INDIANA

CITY           SKY/WX    TMP DP  RH WIND       PRES   REMARKS
MUNCIE         PTCLDY    14  10  84 CALM      30.23S

$$

INZ060-061-067>069-081>083-085>088-280500-
SOUTHWEST INDIANA

CITY           SKY/WX    TMP DP  RH WIND       PRES   REMARKS
EVANSVILLE     CLOUDY    34  28  79 NE8       30.25F WCI  27
HUNTINGBURG *+ CLOUDY    30  25  80 N5        30.25S WCI  25
WASHINGTON +   CLOUDY    30  23  76 NE5       30.25S WCI  25

$$

INZ062-063-066-070>080-084-089>092-280500-
SOUTH CENTRAL AND SOUTHEAST INDIANA

CITY           SKY/WX    TMP DP  RH WIND       PRES   REMARKS
BLOOMINGTON    CLEAR     19  15  84 CALM      30.23S

$$



USA.gov is the U.S. government's official web portal to all federal, state and local government web resources and services.